Regional Weather Roundup
Issued by NWS

Home | Current Version | Previous Version | Graphics & Text | Print | Product List | Glossary On
Versions: 1 2 3 4 5 6 7 8 9 10 11 12 13 14 15 16 17 18 19 20 21 22 23 24 25 26 27 28 29 30 31 32 33 34 35 36 37 38 39 40 41 42 43 44 45 46 47 48 49 50
000
ASUS43 KOAX 170102
RWRNE

WEATHER ROUNDUP FOR NEBRASKA
NATIONAL WEATHER SERVICE OMAHA NE
700 PM CST MON JAN 16 2017

NOTES: SATELLITE DATA IS BEING USED TO AUGMENT CLOUD COVER ABOVE
       12000 FEET.
       "FAIR" INDICATES FEW OR NO CLOUDS BELOW 12,000 FEET WITH NO
       SIGNIFICANT WEATHER AND/OR OBSTRUCTIONS TO VISIBILITY.

  * THESE STATIONS DO NOT REPORT WEATHER SUCH AS RAIN...SNOW OR FOG.

NEZ001>004-019>022-054>056-170200-
NEBRASKA PANHANDLE

CITY           SKY/WX    TMP DP  RH WIND       PRES   REMARKS
SCOTTSBLUFF    CLEAR     31  19  61 N6        30.10R WCI  25
ALLIANCE       CLOUDY    27  17  66 NW3       30.08R
CHADRON        CLOUDY    23  15  71 SW7       30.11R WCI  15
KIMBALL        CLOUDY    34  21  60 NW10      30.09R WCI  26
SIDNEY         CLOUDY    34  24  67 NW12      30.08R WCI  25
$$

NEZ057>060-069>072-079>082-170200-
SOUTHWEST NEBRASKA

CITY           SKY/WX    TMP DP  RH WIND       PRES   REMARKS
NORTH PLATTE   CLOUDY    35  27  72 N10       30.04R WCI  27
IMPERIAL       CLOUDY    35  27  72 NW14      30.06R WCI  26
LEXINGTON      CLOUDY    34  31  88 NW6       30.02R WCI  29
MCCOOK         CLOUDY    35  32  88 NW8       30.05R WCI  29
OGALLALA       CLOUDY    36  27  69 NW12      30.06R WCI  28
$$

NEZ005>010-023>029-035>040-094-170200-
NORTH CENTRAL NEBRASKA

CITY           SKY/WX    TMP DP  RH WIND       PRES   REMARKS
VALENTINE      CLOUDY    25  15  66 NW8       30.06S WCI  16
AINSWORTH      CLOUDY    26  19  73 NW9       30.05R WCI  17
BROKEN BOW     CLOUDY    34  27  75 N16       30.00R WCI  24
O`NEILL        CLOUDY    29  22  75 NW18      30.02R WCI  16
ORD            CLOUDY    32  26  78 NW12      29.99R WCI  23
THEDFORD       CLEAR     30  21  68 NW10G16   30.05R WCI  21
$$

NEZ041-046>049-061>064-073>077-083>087-170200-
SOUTH CENTRAL NEBRASKA

CITY           SKY/WX    TMP DP  RH WIND       PRES   REMARKS
GRAND ISLAND   LGT SNOW N/A N/A N/A N9        29.96S
AURORA         CLOUDY    32  32  99 N5        29.97R WCI  27
HASTINGS       CLOUDY    33  31  92 N15       29.99R WCI  23
HEBRON         CLOUDY    33  32  97 N5        29.96R WCI  28
HOLDREGE       CLOUDY    33  31  92 N3        30.00R
KEARNEY *      CLOUDY    34  28  80 CALM      30.01R
YORK           CLOUDY    32  32 100 CALM      29.96R
$$

NEZ011>018-030>034-042>045-170200-
NORTHEAST NEBRASKA

CITY           SKY/WX    TMP DP  RH WIND       PRES   REMARKS
NORFOLK        FRZ RAIN  31  29  92 N13       29.96S FOG     WCI  21
ALBION         MIX PCPN  31  28  88 N6        29.98R WCI  25
BLAIR          CLOUDY    33  32  98 N6        29.93R FOG     WCI  27
FREMONT        CLOUDY    32  32 100 N3        29.96R FOG
TEKAMAH        LGT RAIN  33  31  92 N13       29.95R FOG     WCI  24
WAYNE          MIX PCPN  32  31  96 N7        29.97S WCI  25
$$

NEZ050>053-065>068-078-088>093-170200-
SOUTHEAST NEBRASKA

CITY           SKY/WX    TMP DP  RH WIND       PRES   REMARKS
LINCOLN        LGT RAIN  33  32  96 N13       29.96R FOG     WCI  24
OMAHA EPPLEY   CLOUDY    34  30  85 N8        29.94R WCI  27
BEATRICE       CLOUDY    33  33  99 N6        29.94R WCI  28
FALLS CITY     CLOUDY    34  34 100 NW7       29.90R FOG     WCI  28
NEBRASKA CITY  CLOUDY    33  33 100 N8        29.91R FOG     WCI  26
PLATTSMOUTH    CLOUDY    33  32  94 NW8       29.91R FOG     WCI  26
$$

NEZ044-045-051>053-067-170200-
OMAHA AREA

CITY           SKY/WX    TMP DP  RH WIND       PRES   REMARKS
OMAHA EPPLEY   CLOUDY    34  30  85 N8        29.94R WCI  27
BLAIR          CLOUDY    33  32  98 N6        29.93R FOG     WCI  27
FREMONT        CLOUDY    32  32 100 N3        29.96R FOG
MILLARD        CLOUDY    35  34  94 N5        29.94R FOG     WCI  31
OFFUTT AFB     DRIZZLE   34  34 100 N10       29.92R FOG     WCI  26
PLATTSMOUTH    CLOUDY    33  32  94 NW8       29.91R FOG     WCI  26
WAHOO          CLOUDY    32  32  99 N13       29.95R FOG     WCI  23
$$




USA.gov is the U.S. government's official web portal to all federal, state and local government web resources and services.